TimeCDT,TemperatureF,Dew PointF,Humidity,Sea Level PressureIn,VisibilityMPH,Wind Direction,Wind SpeedMPH,Gust SpeedMPH,PrecipitationIn,Events,Conditions,WindDirDegrees,DateUTC
12:15 AM,83.7,78.6,85,29.93,10.0,SW,5.8,-,N/A,,Scattered Clouds,230,2013-06-14 05:15:00
12:35 AM,83.7,77.9,83,29.93,10.0,SW,4.6,-,N/A,,Scattered Clouds,230,2013-06-14 05:35:00
12:55 AM,83.3,78.1,84,29.92,10.0,WSW,4.6,-,N/A,,Clear,240,2013-06-14 05:55:00
1:15 AM,83.5,78.1,84,29.94,10.0,WSW,4.6,-,N/A,,Scattered Clouds,250,2013-06-14 06:15:00
1:35 AM,82.4,78.4,88,29.94,10.0,WSW,5.8,-,N/A,,Scattered Clouds,250,2013-06-14 06:35:00
1:55 AM,82.0,77.9,87,29.95,10.0,West,4.6,-,N/A,,Scattered Clouds,280,2013-06-14 06:55:00
2:15 AM,81.5,77.5,88,29.96,10.0,West,3.5,-,N/A,Thunderstorm,Clear,270,2013-06-14 07:15:00
2:35 AM,81.0,77.2,88,29.93,10.0,WSW,5.8,-,N/A,,Clear,250,2013-06-14 07:35:00
2:55 AM,80.8,77.2,89,29.93,10.0,WSW,4.6,-,N/A,,Clear,240,2013-06-14 07:55:00
3:15 AM,80.8,77.2,89,29.93,10.0,WSW,5.8,-,N/A,,Clear,240,2013-06-14 08:15:00
3:35 AM,81.1,77.2,88,29.93,10.0,WSW,6.9,-,N/A,,Clear,250,2013-06-14 08:35:00
3:55 AM,81.3,77.4,88,29.93,10.0,WSW,4.6,-,N/A,,Clear,250,2013-06-14 08:55:00
4:15 AM,81.0,77.4,89,29.93,10.0,West,5.8,-,N/A,,Clear,260,2013-06-14 09:15:00
4:35 AM,80.8,77.5,90,29.94,10.0,West,4.6,-,N/A,,Clear,260,2013-06-14 09:35:00
4:55 AM,80.6,77.7,91,29.94,10.0,WSW,4.6,-,N/A,,Clear,250,2013-06-14 09:55:00
5:15 AM,80.6,77.9,91,29.92,10.0,WSW,6.9,-,N/A,,Clear,250,2013-06-14 10:15:00
5:35 AM,80.8,77.9,91,29.91,10.0,WSW,6.9,-,N/A,,Clear,250,2013-06-14 10:35:00
5:55 AM,80.8,77.9,91,29.92,10.0,West,5.8,-,N/A,,Clear,260,2013-06-14 10:55:00
6:15 AM,80.6,77.9,91,29.92,10.0,West,5.8,-,N/A,,Clear,260,2013-06-14 11:15:00
6:35 AM,80.8,77.9,91,29.92,10.0,WSW,5.8,-,N/A,,Clear,250,2013-06-14 11:35:00
6:55 AM,81.5,78.1,89,29.93,10.0,West,6.9,-,N/A,,Clear,260,2013-06-14 11:55:00
7:15 AM,81.7,78.1,89,29.94,10.0,West,6.9,-,N/A,,Clear,270,2013-06-14 12:15:00
7:35 AM,81.9,78.1,88,29.96,10.0,West,5.8,-,N/A,,Clear,270,2013-06-14 12:35:00
7:55 AM,82.4,78.4,88,29.97,10.0,West,4.6,-,N/A,,Clear,280,2013-06-14 12:55:00
8:15 AM,83.3,78.8,86,29.96,10.0,West,5.8,-,N/A,,Clear,260,2013-06-14 13:15:00
8:35 AM,84.6,79.0,83,29.96,10.0,West,8.1,-,N/A,,Clear,270,2013-06-14 13:35:00
8:55 AM,85.6,79.3,81,29.95,10.0,WSW,11.5,16.1,N/A,,Clear,250,2013-06-14 13:55:00
9:15 AM,86.0,79.0,79,29.94,10.0,West,12.7,18.4,N/A,,Scattered Clouds,260,2013-06-14 14:15:00
9:35 AM,87.1,79.2,77,29.94,10.0,West,13.8,19.6,N/A,,Clear,270,2013-06-14 14:35:00
9:55 AM,87.4,79.2,76,29.94,10.0,West,13.8,18.4,N/A,,Clear,280,2013-06-14 14:55:00
10:15 AM,87.8,78.8,75,29.94,10.0,West,11.5,-,N/A,,Scattered Clouds,260,2013-06-14 15:15:00
10:35 AM,87.8,78.4,74,29.94,10.0,West,11.5,17.3,N/A,,Clear,280,2013-06-14 15:35:00
10:55 AM,88.9,79.0,72,29.94,10.0,West,8.1,16.1,N/A,,Scattered Clouds,280,2013-06-14 15:55:00
11:15 AM,90.5,79.0,69,29.94,10.0,West,9.2,-,N/A,,Mostly Cloudy,260,2013-06-14 16:15:00
11:35 AM,90.7,79.2,69,29.94,10.0,West,11.5,-,N/A,,Mostly Cloudy,270,2013-06-14 16:35:00
11:55 AM,90.9,78.8,68,29.93,10.0,West,6.9,-,N/A,,Mostly Cloudy,260,2013-06-14 16:55:00
12:15 PM,91.4,78.4,66,29.93,10.0,WSW,6.9,-,N/A,,Mostly Cloudy,250,2013-06-14 17:15:00
12:35 PM,90.1,78.3,68,29.92,10.0,WSW,8.1,-,N/A,,Mostly Cloudy,240,2013-06-14 17:35:00
12:55 PM,91.9,79.7,67,29.92,10.0,WSW,9.2,-,N/A,,Mostly Cloudy,240,2013-06-14 17:55:00
1:15 PM,93.0,79.3,64,29.92,10.0,SW,6.9,-,N/A,,Scattered Clouds,220,2013-06-14 18:15:00
1:35 PM,91.9,79.2,66,29.91,10.0,WSW,4.6,-,N/A,,Mostly Cloudy,240,2013-06-14 18:35:00
1:55 PM,91.6,78.4,65,29.90,10.0,WSW,4.6,-,N/A,,Mostly Cloudy,240,2013-06-14 18:55:00
2:15 PM,93.2,79.7,65,29.90,10.0,WSW,6.9,-,N/A,,Mostly Cloudy,250,2013-06-14 19:15:00
2:35 PM,94.3,79.2,61,29.89,10.0,West,6.9,-,N/A,,Scattered Clouds,260,2013-06-14 19:35:00
2:55 PM,94.6,79.3,61,29.89,10.0,WSW,9.2,-,N/A,,Scattered Clouds,250,2013-06-14 19:55:00
3:15 PM,93.7,78.8,62,29.89,10.0,WSW,6.9,-,N/A,,Scattered Clouds,240,2013-06-14 20:15:00
3:35 PM,93.6,78.4,61,29.88,10.0,SW,5.8,-,N/A,,Mostly Cloudy,220,2013-06-14 20:35:00
3:55 PM,91.2,79.0,67,29.87,10.0,WSW,3.5,-,N/A,,Mostly Cloudy,240,2013-06-14 20:55:00
4:15 PM,90.0,79.5,71,29.86,10.0,WSW,5.8,-,N/A,Thunderstorm,Thunderstorm,240,2013-06-14 21:15:00
4:35 PM,86.5,73.6,65,29.87,10.0,West,10.4,16.1,N/A,Rain-Thunderstorm,Light Thunderstorms and Rain,270,2013-06-14 21:35:00
4:55 PM,81.0,75.6,84,29.87,10.0,SW,5.8,-,N/A,Rain-Thunderstorm,Light Thunderstorms and Rain,220,2013-06-14 21:55:00
5:15 PM,80.2,76.1,87,29.86,10.0,South,4.6,-,N/A,Rain-Thunderstorm,Light Thunderstorms and Rain,170,2013-06-14 22:15:00
5:35 PM,79.3,73.6,82,29.85,10.0,SSE,3.5,-,N/A,Rain-Thunderstorm,Light Thunderstorms and Rain,160,2013-06-14 22:35:00
5:55 PM,78.4,73.9,86,29.87,10.0,West,5.8,-,N/A,Rain-Thunderstorm,Light Thunderstorms and Rain,260,2013-06-14 22:55:00
6:15 PM,78.3,71.4,79,29.87,10.0,SW,6.9,-,N/A,Rain-Thunderstorm,Light Thunderstorms and Rain,220,2013-06-14 23:15:00
6:35 PM,78.4,72.7,82,29.87,10.0,North,-9999.0,-,N/A,Thunderstorm,Clear,0,2013-06-14 23:35:00
6:55 PM,79.5,74.3,84,29.87,10.0,North,-9999.0,-,N/A,Thunderstorm,Clear,0,2013-06-14 23:55:00
7:15 PM,79.7,75.6,87,29.86,10.0,Calm,Calm,-,N/A,Thunderstorm,Clear,0,2013-06-15 00:15:00
7:35 PM,79.5,76.6,91,29.89,10.0,WSW,6.9,-,N/A,,Scattered Clouds,250,2013-06-15 00:35:00
7:55 PM,81.0,75.2,83,29.89,10.0,Calm,Calm,-,N/A,,Scattered Clouds,0,2013-06-15 00:55:00
8:15 PM,81.5,74.7,80,29.89,10.0,Calm,Calm,-,N/A,,Scattered Clouds,0,2013-06-15 01:15:00
8:35 PM,80.4,74.8,83,29.88,10.0,Calm,Calm,-,N/A,,Scattered Clouds,0,2013-06-15 01:35:00
8:55 PM,80.2,74.8,84,29.90,10.0,West,4.6,-,N/A,,Mostly Cloudy,260,2013-06-15 01:55:00
9:15 PM,80.2,75.0,84,29.91,10.0,Calm,Calm,-,N/A,,Scattered Clouds,0,2013-06-15 02:15:00
9:35 PM,80.4,74.7,83,29.91,10.0,Calm,Calm,-,N/A,,Clear,0,2013-06-15 02:35:00
9:55 PM,79.3,75.2,87,29.91,10.0,Calm,Calm,-,N/A,,Scattered Clouds,0,2013-06-15 02:55:00
10:15 PM,79.3,75.0,87,29.93,10.0,NNW,3.5,-,N/A,,Mostly Cloudy,330,2013-06-15 03:15:00
10:35 PM,79.5,75.2,87,29.93,10.0,WSW,3.5,-,N/A,,Mostly Cloudy,240,2013-06-15 03:35:00
10:55 PM,78.4,75.2,90,29.93,10.0,Calm,Calm,-,N/A,,Scattered Clouds,0,2013-06-15 03:55:00
11:15 PM,79.2,75.4,88,29.93,10.0,Calm,Calm,-,N/A,,Clear,0,2013-06-15 04:15:00
11:35 PM,78.3,75.2,90,29.93,10.0,NW,3.5,-,N/A,,Clear,310,2013-06-15 04:35:00
11:55 PM,77.7,75.2,92,29.93,10.0,WNW,4.6,-,N/A,,Clear,300,2013-06-15 04:55:00